Regional Weather Roundup
Issued by NWS

Home | Current Version | Previous Version | Graphics & Text | Print | Product List | Glossary On
Versions: 1 2 3 4 5 6 7 8 9 10 11 12 13 14 15 16 17 18 19 20 21 22 23 24 25 26 27 28 29 30 31 32 33 34 35 36 37 38 39 40 41 42 43 44 45 46 47 48 49 50
000
ASUS43 KLOT 301610
RWRIL

ILLINOIS REGIONAL WEATHER ROUNDUP
NATIONAL WEATHER SERVICE CHICAGO/ROMEOVILLE IL
1100 AM CDT TUE SEP 30 2014

NOTE: "FAIR" INDICATES FEW OR NO CLOUDS BELOW 12,000 FEET WITH NO
SIGNIFICANT WEATHER AND/OR OBSTRUCTIONS TO VISIBILITY.

* THESE STATIONS ARE NOT UNDER NWS QUALITY CONTROL. THEY ALSO MAY NOT
  REPORT WEATHER SUCH AS PRECIPITATION OR FOG.

ILZ001-002-007-009-015-016-024-301700-
NORTHWEST ILLINOIS

CITY           SKY/WX    TMP DP  RH WIND       PRES   REMARKS
MOLINE         NOT AVBL
SAVANNA*       CLOUDY    53  44  72 NE8       30.07S
$$

ILZ003-004-008-010-011-017-018-301700-
NORTH CENTRAL ILLINOIS

CITY           SKY/WX    TMP DP  RH WIND       PRES   REMARKS
ROCKFORD       CLOUDY    49  42  77 NE6       30.10S
FREEPORT*      CLOUDY    47  42  83 NE6       30.10S
ROCHELLE*      PTSUNNY   51  42  71 NE9       30.08S
DE KALB*       CLOUDY    48  42  79 NE8       30.07S
PERU*          CLOUDY    55  46  72 E10       30.05F
$$

ILZ005-006-012>014-019>023-301700-
NORTHEAST ILLINOIS

CITY           SKY/WX    TMP DP  RH WIND       PRES   REMARKS
CHICAGO-OHARE  DRIZZLE   53  46  77 N7        30.06R FOG
CHICAGO-MIDWAY CLOUDY    55  51  86 N8        30.05S
AURORA         CLOUDY    53  44  71 NE8       30.07S
LANSING*       CLOUDY    55  48  79 N8        30.04S
JOLIET*        CLOUDY    53  46  79 N7        30.06R
WAUKEGAN       NOT AVBL
DUPAGE AIRPORT CLOUDY    53  45  74 N8        30.06S
KANKAKEE*      CLOUDY    58  49  72 NE9G16    30.04S
WHEELING       CLOUDY    55  46  71 N9        30.07R
MORRIS*        CLOUDY    55  48  78 NE5       30.05S
ROMEOVILLE*    CLOUDY    53  45  75 NE9       30.06S
NORTHERLY ISL    N/A     54  50  86 N10         N/A
$$

LMZ740>746-301700-
SOUTHERN LAKE MICHIGAN

STATION/POSITION SKY/WX   TEMP    WIND        PRES    VSBY  WAVE
                          AIR SEA DIR/SP/G                  HT/PER
                          (F)     (DEG/KT/KT) (MB)    (MI)  (FT/S)
SOUTHERN BUOY              52 62   10/ 16/ 19 1017.1R         5/ 7
WAUKEGAN HARBOR                   350/ 11/ 14   N/A
HARRISON CRIB              52     350/ 15/ 18   N/A
BURNHAM HARBOR             53     320/  9/ 15   N/A
CALUMET HARBOR             56     360/  9/ 14 1016.3R
MICHIGAN CITY              52      10/ 13/ 16   N/A
MICHIGAN CITY 6N           53 64   30/ 14/ 17   N/A           7/ 2
ST. JOSEPH                 52 62   30/ 10/ 16   N/A           5/ 2
$$

ILZ025>027-034>036-040-047-049-050-058-095>099-301700-
WEST-CENTRAL ILLINOIS

CITY           SKY/WX    TMP DP  RH WIND       PRES   REMARKS
QUINCY         CLOUDY    60  59  96 E10       29.99S FOG
GALESBURG*     CLOUDY    55  51  88 E7        30.03S
MACOMB*        CLOUDY    59  55  88 E8        30.04S
JACKSONVILLE*  CLOUDY    60  59  97 E9        30.02R FOG
PITTSFIELD*    CLOUDY    60  58  92 E6        30.01R FOG
$$

ILZ028>032-037-038-041>044-048-051>054-059>061-301700-
CENTRAL ILLINOIS

CITY           SKY/WX    TMP DP  RH WIND       PRES   REMARKS
PONTIAC        PTSUNNY   61  52  72 NE7       30.04R
BLOOMINGTON    MOSUNNY   61  52  72 NE9         N/A
DECATUR        CLOUDY    61  55  81 NE10      30.01S
PEORIA         CLOUDY    60  51  72 NE12      30.02F
LACON*         CLOUDY    58  48  71 E5        30.03S
LINCOLN*       CLOUDY    61  54  78 NE8       30.00S
SPRINGFIELD    CLOUDY    61  56  83 E8        30.01F
TAYLORVILLE    CLOUDY    59  55  88 NE7       30.01R FOG
$$

ILZ033-039-045-046-055>057-062-063-301700-
EAST-CENTRAL ILLINOIS

CITY           SKY/WX    TMP DP  RH WIND       PRES   REMARKS
DANVILLE*      MOSUNNY   60  51  72 NE6       29.99S
RANTOUL*       PTSUNNY   60  50  69 NE8       30.03S
MATTOON        CLOUDY    61  55  81 NE9       30.00R
PARIS*         CLOUDY    61  55  82 NE3       30.02R
$$

ILZ079-100>102-301700-
SOUTHWEST ILLINOIS

CITY           SKY/WX    TMP DP  RH WIND       PRES   REMARKS
BELLEVILLE     SUNNY     79  61  54 CALM      29.96S HX  80
CAHOKIA*       SUNNY     78  59  51 NW3       29.96F
SPARTA*        SUNNY     79  59  50 CALM      29.97F HX  80
$$

ILZ064>066-069>071-074>076-080>082-084>086-088>090-092>094-301700-
SOUTH-CENTRAL ILLINOIS

CITY           SKY/WX    TMP DP  RH WIND       PRES   REMARKS
CARBONDALE     SUNNY     78  59  51 CALM      29.97S
CAIRO*         SUNNY     81  58  46 CALM      29.96F HX  81
EFFINGHAM*     CLOUDY    61  57  86 N5        30.00R FOG
CENTRALIA*     SUNNY     75  58  54 N5        29.97F
SALEM*         SUNNY     76  63  63 CALM      29.97F
METROPOLIS*    SUNNY     81  58  46 CALM      29.96F HX  81
$$

ILZ067-068-072-073-078-083-087-091-301700-
SOUTHEAST ILLINOIS

CITY           SKY/WX    TMP DP  RH WIND       PRES   REMARKS
LAWRENCEVILLE  MOSUNNY   67  60  78 VRB6      29.98S HAZE
FLORA*         SUNNY     71  59  66 NE5       29.98S
FAIRFIELD*     SUNNY     77  61  57 N5        29.96F
HARRISBURG*    SUNNY     78  61  55 CALM      29.97F
ROBINSON*      CLOUDY    64  62  93 N7        30.00S FOG
CARMI*         SUNNY     81  62  53 NW3       29.96S HX  82
$$

ABBREVIATIONS USED IN REMARKS
   TC - TEMPERATURE IN CELSIUS
  WCI - WIND CHILL INDEX
   HX - HEAT INDEX
  VSB - VISIBILITY
$$




USA.gov is the U.S. government's official web portal to all federal, state and local government web resources and services.